Content
SEND FEEDBACK

Daily
Averages
Monthly
Summary
United States of America

HAZELWOOD, MISSOURI


Home > North America > United States > Missouri
Elevation: 570 feet     Latitude: 38 45N     Longitude: 090 22W

WEATHER
 
SELECT A DAY
Number of Records: 201,199;   Date Range: 1/1/95 - 12/17/14
 
SHARE

PRINT THIS DATA

[ ← Previous Day ]
WEATHER ALMANAC - APRIL 26, 2013
[ Next Day → ]
[ °C ]   °F
Weather ElementAverageHighLow
Temperature53.6 °F59 °F (3:54 pm)45 °F (5:54 am)
Dewpoint42.4 °F45 °F (11:54 am)35.6 °F (1:54 am)
Humidity66.4 %82 % (5:54 am)51 % (1:54 am)
Barometer30.31 in30.37 in (9:54 am)30.27 in (2:54 am)
Wind Speed5.7 mph12.7 mph (10:54 am)
Wind Gust17.3 mph (1:54 pm)
Weather ElementAverage
Visibility10 mi
Wind DirectionESE (127.8 °)

Weather ElementTotal
Precipitation---
Heating Degree Days13 (Base 65)
Growing Degree Days2 (Base 50)
Averaged from 23 records on April 26, 2013
WEATHER CONDITIONS BREAKOUT
WIND DIRECTION BREAKOUT
WEATHER BY HOUR - APRIL 26, 2013
[ °C ]   °F
Local TimeTemperatureDewpointHumidityBarometerVisibilityWind DirectionWind SpeedGust SpeedPrecipitationEventsConditions
1:54 AM53.6 °F35.6 °F51 %30.29 in10.0 miCalmClear
2:54 AM53.1 °F37.0 °F55 %30.27 in10.0 miCalmClear
3:54 AM50.0 °F37.0 °F61 %30.27 in10.0 miCalmClear
4:54 AM46.0 °F39.9 °F79 %30.30 in10.0 miCalmClear
5:54 AM45.0 °F39.9 °F82 %30.29 in10.0 miESE (110°)4.6 mphMostly Cloudy
6:54 AM50.0 °F39.9 °F68 %30.32 in10.0 miSSE (160°)3.5 mphOvercast
7:54 AM53.1 °F42.1 °F66 %30.34 in10.0 miCalmOvercast
8:54 AM55.0 °F42.1 °F62 %30.35 in10.0 miSSW (210°)10.4 mph0.00 inOvercast
9:54 AM55.9 °F43.0 °F62 %30.37 in10.0 miSSW (200°)9.2 mph0.00 inOvercast
10:54 AM55.9 °F44.1 °F64 %30.37 in10.0 miSouth (190°)12.7 mph0.00 inRainLight Rain
11:54 AM55.0 °F45.0 °F69 %30.35 in10.0 miSouth (180°)11.5 mph0.00 inOvercast
12:54 PM57.0 °F44.1 °F62 %30.35 in10.0 miSouth (180°)11.5 mphOvercast
1:54 PM57.0 °F44.1 °F62 %30.32 in10.0 miSouth (170°)8.1 mph17.3 mphOvercast
2:54 PM57.0 °F44.1 °F62 %30.32 in10.0 miSSE (160°)8.1 mph16.1 mphOvercast
3:54 PM59.0 °F45.0 °F60 %30.28 in10.0 miSSE (150°)6.9 mph16.1 mphOvercast
4:54 PM59.0 °F43.0 °F55 %30.28 in10.0 miSouth (180°)11.5 mph17.3 mphOvercast
5:54 PM57.0 °F43.0 °F59 %30.29 in10.0 miSouth (170°)8.1 mphMostly Cloudy
6:54 PM54.0 °F44.1 °F69 %30.27 in10.0 miSouth (170°)6.9 mph0.00 inOvercast
7:54 PM53.1 °F44.1 °F71 %30.27 in10.0 miSSW (210°)4.6 mphOvercast
8:54 PM52.0 °F45.0 °F77 %30.32 in10.0 miSouth (180°)3.5 mph0.00 inRainLight Rain
9:54 PM52.0 °F45.0 °F77 %30.32 in10.0 miCalm0.00 inOvercast
10:54 PM52.0 °F45.0 °F77 %30.30 in10.0 miSE (140°)3.5 mphOvercast
11:54 PM51.1 °F44.1 °F77 %30.30 in10.0 miSouth (180°)5.8 mph16.1 mphOvercast
Hourly data recorded from KSUS, located miles away from Hazelwood, Missouri







STORIES FROM OUR PARTNERS